Temperature
19 20 20 20 20 20 20 20 20 20 20 19 19 19 19 19 19 19 19 19 18 18 18 18 18 18 18 18 18 18 18 18 18 18 17 17 17 17 17 17 17 17 17
20 20 20 20 20 20 20 20 20 19 19 19 19 19 19 19 19 19 19 19 18 18 18 18 18 18 18 18 18 18 18 18 17 17 17 17 17 17 17 17 17 17 17
20 20 20 20 20 20 20 20 19 19 19 19 19 19 19 19 19 19 19 19 19 18 18 18 18 18 18 18 18 18 17 17 17 17 17 17 17 17 17 17 17 17 17
21 20 20 20 20 20 20 19 19 19 19 19 19 19 19 19 18 19 19 18 18 18 18 18 18 18 18 18 17 17 17 17 17 17 17 17 17 17 17 17 17 17 17
21 20 20 20 20 20 20 19 19 19 19 19 19 19 18 18 18 18 18 18 18 18 18 18 18 18 17 17 17 17 17 17 17 17 17 17 17 17 17 17 17 17 17
21 20 20 20 20 20 20 20 19 19 19 19 19 19 18 18 18 18 18 18 18 18 18 18 18 17 17 17 17 17 17 17 17 17 17 17 17 17 17 17 17 17 17
21 20 20 20 20 20 20 19 19 19 19 19 19 18 18 18 18 18 18 18 18 18 18 18 18 17 17 17 17 17 17 17 17 17 17 17 17 17 17 17 17 17 17
21 20 20 20 20 20 20 19 19 19 19 19 18 18 18 18 18 18 18 18 18 18 18 18 18 17 17 17 17 17 17 17 17 17 18 17 17 17 17 17 17 17 17
21 21 20 20 20 20 20 20 19 19 19 19 18 18 18 18 18 18 18 18 18 18 18 18 18 17 17 17 17 17 17 17 18 18 18 18 17 17 17 17 17 17 17
21 21 21 20 20 20 20 19 19 19 19 19 19 18 18 18 18 18 18 18 18 18 18 18 18 18 17 17 17 17 17 17 18 18 18 18 17 17 17 17 17 17 16
21 21 21 20 20 20 20 19 19 19 19 19 18 18 18 18 18 18 18 18 18 18 18 18 18 18 17 17 17 17 17 17 18 18 18 18 17 17 17 17 17 17 17
21 20 20 20 20 20 20 19 19 19 19 19 18 18 18 18 18 18 18 18 18 18 18 18 18 18 17 17 17 17 17 17 18 18 18 18 18 17 17 17 17 17 17
21 21 20 20 20 20 20 20 19 19 19 19 18 18 18 18 18 18 18 18 18 18 18 18 18 18 18 18 17 17 18 18 18 18 18 18 18 18 17 17 17 17 17
21 21 21 20 20 20 20 20 19 19 19 19 18 18 18 18 18 18 18 18 18 18 18 18 18 18 18 18 18 17 18 18 18 18 18 18 18 18 18 17 17 17 17
21 21 21 20 20 20 20 20 19 19 19 19 18 18 18 18 18 18 18 18 18 18 18 18 18 18 18 18 18 18 17 18 18 18 18 18 18 18 18 17 17 17 17
21 21 20 20 20 20 20 20 19 19 19 19 19 18 18 18 18 18 18 18 18 18 18 18 18 18 18 18 17 17 17 18 18 18 18 18 18 17 17 17 17 17 17
21 21 21 20 20 20 20 19 19 19 19 19 19 18 18 18 18 18 18 18 18 18 18 18 17 17 18 18 17 17 17 18 18 18 18 18 17 17 17 17 17 17 17
21 21 21 20 20 20 19 19 19 19 19 19 19 18 18 18 18 18 18 18 18 18 18 18 18 17 18 17 17 17 17 17 17 17 17 17 17 17 17 17 17 17 17
22 21 21 20 20 20 19 19 19 19 19 19 19 19 18 18 18 18 18 18 18 18 18 18 18 18 18 17 17 17 17 17 17 17 17 17 17 17 17 17 17 17 17
22 21 21 20 20 20 19 19 19 19 19 19 19 19 19 18 18 18 18 18 18 18 18 18 18 18 18 17 17 17 17 17 17 17 17 17 17 17 17 17 17 17 17
21 21 21 21 20 20 20 19 19 19 19 19 18 18 19 18 18 18 18 18 18 18 18 18 18 18 17 17 17 17 17 17 17 17 17 17 17 17 17 17 17 17 17
21 21 21 21 20 20 20 20 19 19 19 19 19 18 19 19 18 18 18 18 18 18 18 18 18 18 17 17 17 17 17 17 18 17 17 17 17 17 17 17 17 17 17
22 21 21 21 21 20 20 20 19 19 18 18 18 18 18 18 18 18 18 18 18 18 18 18 18 18 18 17 17 18 18 18 18 18 18 18 17 17 17 17 17 17 17
22 21 21 21 21 20 20 20 19 19 19 19 19 19 18 18 18 18 18 18 18 18 18 18 18 18 18 17 17 17 18 18 18 18 18 18 18 17 17 17 17 17 17
22 21 21 21 20 20 20 20 19 19 19 19 19 19 19 18 18 18 18 18 18 18 18 18 18 18 17 17 17 17 17 17 17 18 18 18 18 18 18 17 17 17 17
22 21 21 20 20 20 20 19 19 19 19 19 19 19 18 18 18 18 18 18 18 18 18 18 18 18 17 17 17 17 17 17 17 18 18 18 18 18 18 18 18 18 17
Wind_Speed
8 12 19 20 20 20 20 20 20 20 20 21 21 21 21 21 21 20 20 20 19 19 19 20 20 20 20 21 21 21 22 22 21 21 21 20 20 20 20 20 19 18 19
12 16 20 20 20 20 20 19 19 19 19 20 20 20 20 20 20 20 20 19 19 19 19 20 20 20 20 20 20 21 21 21 21 20 20 19 19 19 19 18 17 17 18
15 17 20 21 21 20 20 19 19 19 19 19 19 19 19 19 19 19 19 19 19 19 19 19 19 19 19 19 19 19 20 20 20 20 18 16 17 18 19 19 18 18 18
17 17 19 22 21 20 20 19 19 19 19 19 19 19 19 19 19 19 18 18 19 18 18 18 18 18 18 17 17 17 17 18 19 18 15 15 16 18 18 18 18 17 17
14 17 21 22 21 21 20 19 19 19 19 18 18 18 18 18 18 18 18 18 17 17 17 17 16 16 16 15 15 14 15 17 17 16 15 15 15 17 17 17 17 16 16
12 17 21 22 21 21 20 19 19 18 18 18 18 18 17 17 17 17 17 17 16 16 16 15 15 14 14 13 12 13 15 16 16 15 15 15 14 16 16 16 16 16 16
13 15 21 22 21 21 20 19 18 18 18 17 17 17 17 17 17 17 17 16 16 15 15 14 14 12 12 11 12 13 14 16 16 15 14 14 14 15 16 16 15 15 15
15 15 19 22 21 20 20 19 18 18 17 17 16 16 16 16 16 16 16 16 15 14 14 13 12 11 10 11 12 13 15 16 15 14 13 14 15 15 15 15 14 14 15
14 13 15 18 20 20 19 18 18 17 17 16 16 16 16 16 16 15 15 15 14 14 13 12 11 10 9 10 11 12 14 16 15 14 13 13 15 15 15 14 14 13 13
12 11 11 14 15 16 17 18 18 17 17 16 16 16 16 16 15 15 14 14 13 13 12 11 9 8 8 8 9 12 15 15 14 13 13 13 15 15 14 13 13 12 12
13 10 10 10 12 14 15 17 17 17 17 16 15 16 15 13 13 13 13 13 12 11 10 9 8 6 6 6 8 12 12 12 14 12 12 14 15 14 13 13 12 12 11
16 13 11 10 11 13 14 14 13 13 14 13 13 13 12 12 11 11 13 12 11 10 8 7 5 4 3 3 5 9 11 13 13 12 12 15 14 14 13 12 12 11 11
18 16 13 12 12 11 9 12 10 11 12 12 13 13 11 10 9 10 9 9 8 8 6 5 3 2 1 1 3 7 11 11 12 12 13 15 14 13 13 12 11 11 10
18 16 15 14 12 11 11 10 10 9 9 9 12 13 11 8 7 8 7 7 6 5 4 3 2 3 3 2 4 8 10 10 11 12 14 15 14 13 12 12 11 11 10
17 17 17 14 13 11 10 9 10 8 10 11 12 13 13 8 6 7 7 7 7 6 5 4 4 3 2 2 6 9 9 11 13 13 13 15 14 13 13 12 11 11 10
18 18 16 15 14 12 10 8 8 10 11 12 12 14 15 13 9 7 6 6 6 8 8 6 5 3 2 2 4 8 10 12 12 13 13 14 14 13 13 12 12 11 11
18 17 15 15 14 13 11 10 10 11 12 10 11 14 15 14 13 9 5 5 7 9 8 5 4 3 2 2 3 5 9 11 12 13 13 13 14 14 13 13 13 12 12
16 16 16 16 14 13 10 8 8 10 10 9 12 13 14 15 14 10 6 5 8 9 7 3 3 2 1 2 2 3 5 8 11 12 13 13 13 13 14 14 14 13 13
17 17 14 13 14 12 10 7 8 8 9 10 11 11 13 14 14 10 6 6 9 6 4 4 3 3 2 2 2 2 3 4 6 10 10 13 14 14 15 15 15 15 15
15 15 14 13 13 11 8 7 5 6 6 8 9 11 13 13 14 11 7 7 7 4 4 3 3 3 3 3 2 1 2 3 4 6 8 11 13 15 15 15 15 16 17
14 15 14 14 12 10 8 7 6 6 6 6 7 12 14 13 13 10 6 5 5 5 6 6 3 3 2 2 2 1 2 1 3 4 5 6 9 13 15 16 16 15 15
17 16 15 14 13 12 9 7 5 5 5 6 6 9 13 13 13 11 7 6 6 5 5 5 4 3 2 3 3 2 1 3 3 3 4 5 7 9 11 15 16 16 16
17 17 16 14 13 12 10 6 5 4 3 3 5 6 8 12 12 11 10 7 6 6 6 6 6 6 4 2 3 4 3 4 3 3 3 4 5 5 7 11 15 17 17
17 16 14 14 13 11 11 9 9 7 7 7 6 6 7 10 11 11 10 9 7 6 7 7 6 5 5 3 2 2 3 4 3 2 3 3 5 6 6 7 10 14 17
15 14 13 12 12 11 11 11 10 8 6 5 5 7 7 7 9 10 10 8 7 6 7 7 6 6 5 5 4 3 2 1 2 3 3 3 3 4 5 6 7 10 15
13 13 12 13 12 11 11 11 11 11 9 8 7 8 7 6 6 8 10 8 8 7 7 7 7 8 6 6 5 4 4 3 4 3 4 4 4 4 4 4 5 8 11
Wind_Direction
140 140 132 126 120 115 110 106 103 102 102 103 103 104 105 106 107 108 109 108 108 107 105 104 103 103 104 105 107 108 108 107 107 108 109 110 109 108 106 106 104 104 106
142 141 134 130 124 119 116 112 108 106 106 107 106 106 107 108 109 110 110 110 109 108 107 105 104 104 105 107 109 110 109 108 107 107 106 107 108 108 107 107 107 109 108
136 138 136 132 128 124 121 118 114 112 110 110 109 109 109 110 112 112 111 111 111 109 108 108 107 107 108 108 110 111 110 108 106 104 101 101 106 108 108 109 109 109 108
135 137 137 134 131 128 125 122 119 116 115 113 113 112 112 113 113 113 113 113 113 112 111 111 110 111 110 110 110 112 113 111 109 106 102 103 108 110 110 110 110 110 110
132 136 139 136 134 131 129 126 122 119 119 118 117 116 115 115 115 115 115 115 114 114 114 113 113 114 112 111 111 112 113 113 111 107 102 102 108 113 113 112 112 112 113
131 136 140 138 137 134 132 129 127 125 123 122 120 119 119 118 118 117 117 116 116 116 116 115 116 115 112 109 108 110 114 115 110 108 107 107 111 115 116 115 114 114 114
134 137 141 140 139 137 135 133 131 129 127 126 124 123 123 122 121 120 119 119 119 119 119 119 117 115 111 107 105 108 118 119 116 113 110 112 116 118 117 116 116 116 116
138 137 141 142 142 140 139 137 135 133 131 130 128 127 126 125 123 123 123 122 122 122 122 122 120 116 109 105 108 112 119 123 123 120 117 118 121 119 119 119 119 119 118
139 139 140 144 145 144 142 141 140 138 136 134 133 132 131 129 127 127 127 126 126 126 127 126 124 121 115 106 109 116 120 127 126 129 127 125 127 125 123 123 123 122 123
141 141 139 143 144 145 146 145 144 142 140 139 137 137 136 134 132 131 130 130 131 132 133 132 130 126 115 105 107 119 124 126 129 130 131 134 133 131 129 128 127 126 125
147 148 145 144 144 145 148 150 148 146 146 144 143 142 138 134 134 135 136 137 136 137 139 139 137 134 118 104 111 121 125 129 133 135 139 142 139 135 134 134 135 133 132
157 160 159 155 154 154 155 149 150 149 149 148 147 143 142 141 143 144 146 144 144 144 146 148 147 145 123 102 108 120 128 136 137 142 147 148 145 143 140 139 141 140 139
163 164 166 165 164 164 152 153 155 153 153 155 157 155 153 151 150 145 147 148 151 153 151 156 167 191 192 152 123 134 139 142 146 150 155 155 152 151 149 148 147 148 148
166 169 170 170 170 167 159 162 162 161 164 167 172 168 160 151 148 151 155 159 163 165 168 175 205 243 256 220 154 145 143 147 152 153 159 161 160 158 158 158 159 158 158
170 172 174 173 172 167 163 169 169 173 175 177 177 176 169 159 161 166 169 175 182 182 181 189 213 237 241 191 149 147 147 151 156 158 164 168 168 168 168 169 170 170 170
173 173 174 173 171 167 171 173 170 176 178 178 179 180 175 170 170 171 174 182 193 195 192 188 193 190 179 153 145 152 151 152 160 164 168 174 178 179 179 180 181 182 182
173 171 172 172 170 171 174 176 171 176 178 178 180 180 177 173 174 175 173 183 196 195 187 177 174 158 143 138 142 153 155 160 167 172 175 180 184 188 189 191 192 193 194
169 169 172 174 170 169 169 169 166 171 173 178 177 176 175 175 175 173 171 182 185 176 168 157 154 142 140 143 151 162 162 167 173 179 182 187 189 193 199 202 202 202 204
169 169 170 167 169 169 165 162 160 163 170 178 176 173 174 175 174 170 174 181 176 168 164 174 158 151 156 165 176 170 174 176 180 185 191 196 199 201 203 208 210 211 212
168 169 169 166 169 164 157 151 150 155 168 176 179 179 176 177 175 172 176 180 172 159 167 169 159 153 156 166 167 159 202 201 190 191 198 201 206 208 209 209 212 216 219
168 171 172 169 172 166 164 164 166 174 176 179 186 183 178 179 176 172 175 173 169 171 178 171 154 154 166 142 99 24 341 286 218 207 205 200 207 211 210 212 214 216 221
174 176 175 175 176 176 175 169 170 168 177 182 186 187 184 180 178 179 172 177 175 172 175 172 156 153 178 159 143 120 352 332 308 235 213 208 212 211 212 216 218 218 219
179 181 182 181 179 177 169 156 150 140 145 170 185 190 194 186 183 183 181 176 178 177 182 184 171 163 178 199 167 150 158 217 271 295 242 219 210 211 216 216 218 220 219
184 182 181 180 179 177 171 172 173 179 189 196 188 188 190 190 186 187 184 179 182 184 185 190 184 172 164 186 205 201 181 164 170 267 300 258 227 220 218 221 222 221 220
181 180 179 176 179 178 179 182 184 191 194 184 178 183 191 195 193 190 188 185 188 191 193 193 184 180 176 181 186 187 185 178 167 169 243 280 280 244 223 221 222 222 221
176 178 178 179 185 184 185 188 191 192 190 184 187 191 198 198 198 197 196 192 193 194 197 197 192 187 191 189 190 186 179 181 196 185 210 239 253 262 240 228 225 224 221
Height
1530 1531 1533 1534 1534 1535 1536 1537 1537 1538 1539 1540 1541 1542 1542 1543 1545 1546 1547 1548 1549 1550 1551 1552 1553 1553 1554 1555 1556 1557 1558 1559 1559 1560 1560 1561 1562 1562 1563 1564 1564 1565 1565
1528 1531 1534 1535 1536 1537 1538 1539 1539 1540 1541 1542 1543 1544 1545 1546 1547 1548 1549 1550 1551 1552 1553 1554 1555 1556 1557 1558 1559 1560 1560 1561 1562 1562 1563 1564 1565 1565 1566 1566 1567 1567 1568
1529 1532 1534 1536 1537 1539 1540 1541 1541 1542 1543 1544 1545 1546 1547 1548 1549 1550 1551 1552 1553 1554 1555 1556 1557 1558 1559 1561 1562 1562 1563 1564 1565 1565 1566 1566 1567 1568 1568 1569 1569 1570 1570
1530 1533 1535 1538 1539 1540 1541 1542 1543 1544 1545 1546 1547 1548 1549 1550 1551 1552 1554 1555 1556 1557 1558 1559 1560 1561 1562 1563 1564 1565 1566 1567 1567 1568 1568 1569 1569 1570 1571 1571 1572 1572 1573
1531 1534 1537 1539 1540 1542 1543 1544 1545 1546 1547 1548 1549 1550 1551 1552 1553 1554 1556 1557 1558 1559 1560 1561 1563 1564 1565 1566 1567 1568 1568 1569 1570 1570 1571 1571 1571 1572 1573 1574 1574 1575 1575
1533 1535 1538 1540 1541 1543 1544 1546 1547 1548 1549 1550 1551 1552 1553 1554 1555 1556 1557 1559 1560 1561 1562 1564 1565 1566 1567 1568 1569 1570 1570 1571 1572 1572 1573 1573 1574 1575 1575 1576 1576 1577 1577
1533 1536 1539 1541 1543 1544 1546 1547 1548 1549 1551 1552 1553 1554 1555 1556 1557 1558 1560 1561 1562 1563 1565 1566 1567 1568 1570 1570 1571 1572 1572 1573 1574 1574 1575 1576 1576 1577 1577 1578 1579 1579 1580
1534 1537 1540 1542 1544 1545 1547 1548 1550 1551 1552 1553 1555 1556 1557 1558 1559 1560 1561 1563 1564 1565 1567 1568 1569 1571 1572 1572 1573 1574 1575 1575 1576 1576 1577 1578 1578 1579 1579 1580 1581 1581 1582
1536 1538 1540 1542 1544 1546 1548 1549 1551 1552 1554 1555 1556 1557 1558 1560 1561 1562 1563 1564 1566 1567 1569 1570 1571 1573 1574 1575 1575 1576 1577 1577 1578 1578 1579 1579 1580 1581 1581 1582 1583 1583 1584
1537 1539 1541 1543 1545 1547 1548 1550 1552 1553 1555 1556 1557 1559 1560 1561 1563 1564 1565 1566 1568 1569 1570 1572 1573 1575 1576 1577 1577 1578 1578 1579 1580 1580 1580 1581 1582 1582 1583 1584 1584 1585 1585
1537 1540 1541 1543 1545 1547 1549 1551 1553 1554 1556 1557 1559 1560 1561 1563 1564 1565 1567 1568 1569 1571 1572 1574 1575 1577 1578 1579 1579 1580 1580 1581 1581 1582 1582 1583 1583 1584 1584 1585 1586 1586 1587
1536 1539 1541 1543 1545 1547 1549 1551 1553 1555 1556 1558 1560 1561 1563 1564 1566 1567 1568 1570 1571 1572 1574 1575 1577 1578 1580 1580 1581 1581 1582 1583 1583 1583 1584 1584 1585 1585 1586 1586 1587 1587 1588
1534 1538 1541 1543 1546 1547 1549 1551 1553 1555 1557 1559 1560 1562 1564 1565 1567 1568 1570 1571 1572 1574 1575 1577 1578 1580 1581 1582 1582 1583 1583 1584 1584 1585 1585 1586 1586 1586 1587 1587 1588 1589 1589
1534 1537 1540 1543 1545 1547 1549 1551 1553 1555 1557 1559 1561 1562 1564 1566 1567 1569 1571 1572 1574 1575 1576 1578 1579 1581 1582 1582 1583 1584 1584 1585 1585 1586 1586 1587 1587 1587 1588 1588 1589 1589 1590
1532 1536 1539 1542 1544 1546 1549 1551 1553 1555 1557 1559 1561 1562 1565 1566 1568 1570 1571 1573 1575 1576 1577 1579 1580 1581 1582 1583 1583 1584 1585 1586 1586 1587 1587 1587 1588 1588 1588 1589 1589 1590 1590
1530 1534 1537 1540 1543 1546 1548 1550 1553 1555 1557 1559 1561 1562 1564 1566 1568 1570 1572 1573 1575 1576 1578 1579 1580 1581 1582 1583 1584 1585 1585 1586 1586 1587 1587 1588 1588 1588 1589 1589 1589 1590 1590
1529 1532 1536 1539 1542 1545 1547 1550 1552 1554 1556 1558 1560 1562 1564 1566 1568 1570 1572 1573 1574 1576 1578 1579 1580 1581 1583 1583 1584 1585 1585 1586 1586 1587 1588 1588 1588 1588 1589 1589 1589 1590 1590
1527 1531 1535 1538 1541 1544 1546 1549 1551 1553 1555 1557 1559 1561 1563 1565 1567 1569 1571 1572 1574 1575 1577 1578 1580 1581 1582 1583 1584 1585 1585 1586 1586 1587 1587 1588 1588 1588 1588 1589 1589 1589 1589
1526 1530 1534 1536 1540 1543 1545 1548 1550 1552 1554 1556 1558 1560 1562 1564 1566 1568 1570 1572 1573 1574 1576 1578 1579 1580 1581 1583 1584 1584 1585 1585 1585 1586 1587 1587 1588 1588 1588 1588 1588 1588 1589
1525 1529 1532 1535 1538 1541 1544 1547 1549 1551 1553 1555 1557 1559 1561 1563 1565 1567 1569 1571 1572 1574 1575 1576 1578 1579 1581 1582 1583 1584 1584 1585 1585 1585 1586 1586 1587 1587 1587 1588 1588 1588 1588
1523 1527 1530 1532 1536 1539 1541 1544 1546 1548 1551 1553 1555 1557 1559 1561 1563 1565 1567 1569 1571 1572 1574 1575 1577 1578 1579 1580 1581 1582 1583 1583 1583 1584 1584 1585 1585 1586 1586 1586 1586 1586 1586
1519 1523 1526 1530 1533 1536 1539 1542 1544 1547 1549 1551 1553 1555 1557 1558 1560 1562 1565 1567 1569 1570 1572 1573 1575 1576 1577 1578 1580 1580 1581 1582 1582 1582 1582 1583 1583 1584 1584 1584 1585 1585 1585
1516 1520 1523 1527 1530 1533 1536 1540 1543 1545 1547 1549 1550 1552 1554 1556 1558 1560 1562 1564 1566 1568 1569 1571 1573 1574 1575 1577 1578 1579 1579 1578 1579 1580 1580 1581 1581 1581 1582 1582 1582 1583 1583
1512 1517 1521 1524 1528 1531 1534 1536 1538 1540 1541 1543 1546 1548 1551 1553 1555 1557 1559 1561 1563 1565 1567 1569 1570 1571 1573 1574 1575 1576 1577 1577 1578 1577 1578 1579 1579 1579 1579 1579 1580 1580 1580
1509 1514 1518 1521 1525 1528 1531 1533 1535 1537 1539 1542 1544 1546 1548 1550 1552 1554 1557 1558 1560 1562 1564 1565 1567 1568 1570 1571 1572 1573 1574 1575 1575 1575 1575 1576 1576 1576 1576 1576 1577 1577 1577
1507 1511 1514 1518 1521 1524 1527 1529 1531 1533 1535 1538 1540 1542 1544 1547 1548 1551 1553 1555 1557 1558 1560 1562 1564 1565 1567 1568 1569 1570 1571 1572 1572 1573 1572 1572 1573 1573 1573 1573 1573 1574 1574